Location: Combs
(48.6650°N, 2.5696°E)
Time: 07:10:51
(UTC+00:00)

Daily predictions for brighter satellites

Satellite Brightness Start Highest point End
(mag) Time Altitude Azimuth Time Altitude Azimuth Time Altitude Azimuth
NOSS 3-1 (A) 4.2 18:11:02 10° WSW 18:16:32 55° NW 18:23:04 10° NE
SJ 16-02 1.7 18:14:39 10° SSW 18:19:00 74° WNW 18:23:25 10° NNE
Cosmos 1378 Rocket 4.3 18:14:49 10° NNW 18:19:05 58° W 18:23:18 10° S
Cosmos 2112 Rocket 4.2 18:14:48 10° NNW 18:20:02 77° WSW 18:25:14 10° SSE
Cosmos 1937 Rocket 3.7 18:17:47 10° S 18:22:49 50° ESE 18:27:52 10° NNE
NOSS 8 (E) 4.1 18:19:47 10° SW 18:23:01 80° SE 18:26:02 10° NE
NOSS 8 (H) 4.5 18:20:07 10° SSW 18:23:12 45° SE 18:26:05 10° NE
Cosmos 1680 Rocket 4.1 18:18:21 10° NNW 18:23:31 63° WSW 18:28:41 10° S
Abrixas rocket 1.9 18:25:56 10° WSW 18:28:46 67° SSE 18:31:36 10° E
Tsikada Rocket 4.5 18:23:55 10° NNW 18:30:01 67° W 18:36:07 10° S
Okean 2 Rocket 4.1 18:26:29 10° SE 18:30:08 25° E 18:33:48 10° NNE
NOSS 2-2 (E) 3.8 18:28:26 10° S 18:31:37 34° ESE 18:35:09 10° NE
SL-08 RB Rocket 4.5 18:28:55 10° SE 18:33:00 33° ENE 18:37:04 10° N
USA 116 3.5 18:31:31 10° NNE 18:34:55 59° ESE 18:38:40 10° S
Cosmos 1544 3.6 18:31:39 10° SSW 18:35:17 63° W 18:38:56 10° N
Okean 2 3.6 18:31:16 10° NNW 18:35:27 79° W 18:39:36 10° S
Okean-O 3.5 18:32:08 10° S 18:36:28 54° W 18:40:50 10° NNW
ATLAS 2AS CENTAUR R/B 4.5 18:36:16 10° ESE 18:37:58 11° E 18:39:39 10° E
Cosmos 1300 Rocket 4.4 18:34:56 10° SSE 18:38:42 29° E 18:42:31 10° NNE
NOSS 2-2 (D) 3.8 18:37:09 10° S 18:40:18 32° ESE 18:43:45 10° ENE
CENTAUR R/B 3.6 18:36:59 10° NW 18:44:23 46° NE 18:51:59 12° ESE
USA 102 4.1 18:40:25 10° SE 18:44:33 19° ESE 18:45:15 18° E
Iridium 4 Rocket 3.7 18:39:49 10° S 18:44:47 77° W 18:50:16 10° N
YAOGAN 1 3.3 18:41:33 10° S 18:45:48 59° W 18:50:06 10° NNW
GP-B 4.3 18:41:37 10° N 18:45:54 48° W 18:50:10 10° SSW
Cosmos 2082 Rocket 4.4 18:45:19 10° NNE 18:46:12 10° NNE 18:47:03 10° NNE
Cosmos 1975 3.1 18:42:16 10° SSW 18:46:21 75° W 18:50:27 10° N
H-2A R/B 1.9 18:44:58 10° SSE 18:49:56 83° ENE 18:55:03 10° NNW
Cosmos 1437 3.3 18:47:08 10° NNW 18:50:05 54° W 18:53:00 10° S
DMSP B5D1-3 4.5 18:45:15 10° NNE 18:50:23 80° ESE 18:55:29 10° SSW
Cosmos 1674 4.2 18:47:32 10° NNE 18:50:26 20° ENE 18:52:10 15° ESE
SJ-11-01 4.3 18:45:49 10° SSE 18:50:33 89° WSW 18:55:17 10° NNW
ATLAS 3B R/B 4.0 18:45:23 10° NW 18:51:00 27° NNE 18:56:45 10° ENE
CZ-4 R/B 2.9 18:47:13 10° S 18:51:14 42° W 18:55:16 10° NNW
ISS -2.8 18:51:12 10° SSW 18:54:13 30° SE 18:56:09 17° E
Cosmos 1536 Rocket 4.2 18:50:57 10° N 18:55:04 36° ENE 18:58:59 11° SE
Cosmos 1842 4.3 18:52:03 10° NNW 18:55:47 48° W 18:59:31 10° SSW
USA 238 DEB 4.0 18:49:02 10° NW 18:56:07 60° NE 19:02:30 14° ESE
USA 238 4.0 18:49:08 10° NW 18:56:13 60° NE 19:02:35 14° ESE
In-Cosmos 22 4.2 18:52:27 10° N 18:57:40 55° ENE 19:02:53 10° SSE
Cosmos 1891 Rocket 4.5 18:53:09 10° S 18:59:09 59° E 19:05:05 10° NNE
ARGOS 3.1 18:58:07 10° SSE 19:03:28 84° ENE 19:08:54 10° NNW
Cosmos 1025 Rocket 3.1 19:00:48 10° N 19:05:09 58° ENE 19:09:28 10° SSE
CZ-2C R/B 3.1 19:00:23 10° NNE 19:05:35 40° E 19:10:49 10° SSE
Cosmos 1782 Rocket 4.2 19:02:13 10° SSW 19:06:34 60° WNW 19:11:00 10° N
Cosmos 1707 2.6 19:04:34 10° N 19:08:26 87° E 19:12:16 10° S
Cosmos 2151 Rocket 3.9 19:07:12 10° SSE 19:11:26 45° E 19:15:43 10° NNE
USA 186 1.6 19:13:02 15° SSE 19:15:29 73° ENE 19:18:44 10° N
CREW DRAGON DEMO-1 DEB 3.5 19:13:44 10° WNW 19:16:41 47° N 19:18:00 27° ENE
Ariane Rocket 2.9 19:13:23 10° SSE 19:18:25 72° ENE 19:23:31 10° N
SJ-6B 2.7 19:16:15 19° SSE 19:18:46 57° ENE 19:22:29 10° N
CZ-2C R/B 4.3 19:14:36 10° S 19:19:38 46° W 19:24:58 10° NNW
Cosmos 1844 4.3 19:15:28 10° SSE 19:20:30 33° ESE 19:25:29 10° NE
FREGAT/IRIS 2.3 19:20:39 47° ESE 19:21:01 53° ENE 19:23:34 10° N
Cosmos 2263 Rocket 3.0 19:16:58 10° SW 19:22:24 52° NW 19:27:53 10° NNE
Nadezhda 4 Rocket 3.9 19:16:34 10° N 19:22:40 68° ENE 19:28:45 10° SSE
Cosmos 1072 Rocket 4.5 19:16:34 10° S 19:22:49 88° E 19:29:12 10° N
Cosmos 494 Rocket 4.4 19:18:16 10° NNW 19:23:22 47° ENE 19:26:06 25° ESE
NOSS 3-2 (A) 4.0 19:16:26 10° NW 19:23:53 83° NE 19:30:19 19° SE
NOSS 2-2 (C) 3.0 19:21:15 10° SW 19:24:46 88° SE 19:28:45 10° NE
MOS 1 4.2 19:21:27 10° SSE 19:27:08 75° ENE 19:32:51 10° NNW
Cosmos 1844 Rocket 2.9 19:23:50 10° S 19:29:06 46° ESE 19:34:27 10° NE
Cosmos 2034 Rocket 4.0 19:22:57 10° S 19:29:15 68° E 19:35:33 10° NNE
USA 102 3.7 19:24:07 12° SSE 19:29:52 40° SW 19:29:58 39° SW
Cosmos 2298 Rocket 4.0 19:26:16 10° S 19:31:32 64° ESE 19:36:50 10° NNE
SPOT 3 Rocket 3.8 19:32:57 27° SE 19:35:25 49° ENE 19:40:23 10° N
USA 234 3.6 19:37:20 10° ENE 19:43:29 42° SE 19:49:37 10° SSW
Resurs 01 Rocket 2.1 19:42:54 37° E 19:43:41 41° ENE 19:47:53 10° N
SWAS 4.4 19:40:26 10° NNW 19:44:43 66° ENE 19:45:53 45° ESE
Lacrosse 5 rocket 3.2 19:42:33 10° WNW 19:46:22 29° N 19:49:28 14° NE
MetOp-A 4.1 19:42:59 15° SSE 19:47:27 84° WSW 19:52:50 10° NNW
Cosmos 1833 Rocket 3.8 19:45:09 10° NNW 19:49:59 28° NE 19:51:25 25° ENE
Cosmos 372 Rocket 4.4 19:45:35 10° SSW 19:50:47 65° WNW 19:56:01 10° NNE
OBJECT-B 0.6 19:52:33 85° E 19:52:34 85° ENE 19:55:50 10° N
Meteor 1-15 Rocket 4.1 19:48:04 10° S 19:53:40 75° E 19:59:24 10° NNE
Cosmos 1626 3.0 19:53:19 10° N 19:56:03 35° NE 19:56:03 35° NE
NOSS 3-2 (C) 4.0 19:51:15 10° NW 19:58:42 86° NE 20:03:03 32° SE
DMSP B5D2-2 4.0 19:54:01 10° NNE 19:59:21 89° WNW 20:04:39 10° SSW
ARIANE 5 R/B 3.4 20:01:02 35° ENE 20:01:02 35° ENE 20:04:41 10° N
Cosmos 2150 Rocket 4.1 19:55:52 10° SSW 20:01:15 82° WNW 20:06:45 10° NNE
Cosmos 1634 Rocket 4.0 19:59:03 31° SSE 20:01:53 55° E 20:07:54 10° NNE
Abrixas rocket 3.3 20:01:10 10° W 20:03:00 36° W 20:03:00 36° W
BREEZE-M TANK 3.0 19:56:44 10° WSW 20:04:15 51° S 20:04:38 49° SSE
Landsat 7 4.4 20:09:07 39° ENE 20:09:07 39° ENE 20:13:19 10° N
Cosmos 2285 Rocket 3.9 20:02:47 10° S 20:09:02 71° ESE 20:15:23 10° NNE
Cosmos 1125 Rocket 3.4 20:03:46 10° SSW 20:09:04 82° ESE 20:14:26 10° NNE
Okean 1 Rocket 2.9 20:08:19 48° S 20:09:32 82° E 20:14:03 10° N
ERS-1 Rocket 4.2 20:17:26 26° NE 20:17:26 26° NE 20:21:03 10° N
Cosmos 1627 Rocket 4.4 20:10:26 10° N 20:16:52 85° E 20:19:38 37° SSE
Resurs 1-3 4.0 20:18:56 44° SSW 20:20:03 61° WSW 20:24:26 10° NNW
Cosmos 1092 Rocket 4.1 20:16:02 10° NNW 20:22:11 73° W 20:25:37 28° S
Meteor 2-5 Rocket 3.8 20:17:45 10° NNW 20:23:24 79° W 20:25:27 41° S
Cosmos 1805 3.6 20:24:13 64° W 20:24:14 64° WNW 20:28:09 10° N
Cosmos 1674 4.1 20:22:31 10° NNW 20:26:05 36° W 20:27:00 32° SW
ATLAS 2AS CENTAUR R/B 3.1 20:19:41 10° SSW 20:27:15 51° ESE 20:34:47 10° NE
Cosmos 2026 Rocket 4.0 20:22:02 10° N 20:28:26 85° W 20:30:53 41° S
Cosmos 2098 Rocket 4.4 20:22:43 10° N 20:29:36 46° ENE 20:30:00 46° E
ISS -1.7 20:27:30 10° WSW 20:29:08 26° W 20:29:08 26° W
Cosmos 2082 Rocket 3.1 20:27:07 10° NNW 20:32:11 33° NE 20:32:16 33° NE
BREEZE-M DEB (TANK) 4.4 20:29:31 10° WSW 20:33:46 88° SSE 20:52:20 10° ENE
Cosmos 1733 4.5 20:36:19 36° N 20:36:19 36° N 20:38:44 10° N
CENTAUR R/B 3.3 20:27:42 10° NW 20:35:43 70° SW 20:39:10 40° SSE
Meteor 1-22 Rocket 4.2 20:34:26 54° S 20:35:53 83° E 20:41:58 10° NNE
Cosmos 1892 Rocket 4.1 20:34:21 10° N 20:37:39 51° N 20:37:39 51° N
CZ-2C R/B 3.8 20:34:29 10° N 20:38:57 70° WNW 20:38:59 70° WNW
SPOT 1/Viking Rocket 3.7 20:43:21 59° NE 20:43:21 59° NE 20:47:54 10° N
ATLAS 3B R/B 2.8 20:36:14 10° NW 20:43:01 62° NE 20:44:10 55° E
COSMOS 2406 3.1 20:37:23 10° NNW 20:43:05 76° ENE 20:43:09 76° ENE
SL-14 R/B 4.4 20:40:28 10° NNW 20:43:15 42° NW 20:43:15 42° NW
Cosmos 2279 Rocket 3.8 20:44:35 71° ESE 20:44:49 72° E 20:51:05 10° NNE
CZ-2C R/B 4.2 20:40:49 10° N 20:45:49 36° WNW 20:50:52 10° SW
Meteor 1-24 Rocket 3.9 20:40:42 10° NNW 20:46:09 67° W 20:47:08 56° SSW
Cosmos 1269 Rocket 4.1 20:42:28 10° NNW 20:47:46 67° WSW 20:48:00 66° SW
Cosmos 2142 Rocket 4.4 20:47:06 64° S 20:48:10 86° E 20:54:26 10° N
Spot 2 Rocket 3.6 20:51:06 67° N 20:51:06 67° N 20:55:32 10° NNW
Exosat Rocket 4.3 20:50:03 10° SW 20:55:20 51° WNW 21:00:14 10° NNE
Terra 3.4 21:02:36 27° NNE 21:02:36 27° NNE 21:05:08 10° N
MetOp-B 4.4 21:01:41 61° WSW 21:01:47 61° WSW 21:07:07 10° NNW
Cosmos 2278 Rocket 4.2 21:07:58 17° NE 21:07:58 17° NE 21:09:12 10° NE
Lacrosse 4 Rocket 3.4 21:04:50 10° NNW 21:06:37 23° N 21:06:37 23° N
Cosmos 909 Rocket 4.2 21:03:03 10° NW 21:09:31 62° NE 21:09:31 62° NE
Cosmos 1844 Rocket 4.1 21:08:05 10° WSW 21:13:09 35° NW 21:18:17 10° NNE
Resurs 01 Rocket 3.6 21:20:28 24° W 21:20:28 24° W 21:23:59 10° NW
Cosmos 2251 Rocket 4.3 21:15:59 10° NNW 21:19:53 47° N 21:19:53 47° N
Lacrosse 5 rocket 3.5 21:22:25 10° NW 21:25:05 27° NNW 21:25:05 27° NNW
USA 234 3.3 21:24:43 47° NE 21:26:48 76° NNW 21:33:21 10° WSW
SPOT 5 4.0 21:28:43 45° NNW 21:28:43 45° NNW 21:32:21 10° NNW
Cosmos 2266 Rocket 4.2 21:24:35 10° N 21:29:34 62° NNW 21:29:34 62° NNW
Cosmos 1833 Rocket 3.4 21:28:46 10° NNW 21:33:07 50° WNW 21:33:07 50° WNW
Cosmos 1655 Rocket 4.4 21:36:00 10° NNW 21:41:39 57° WNW 21:41:39 57° WNW
Cosmos 2082 Rocket 3.7 22:11:04 10° NW 22:14:06 31° NW 22:14:06 31° NW
ATLAS 2AS CENTAUR R/B 3.5 22:10:30 10° WSW 22:18:19 56° NW 22:26:01 10° NE
ATLAS 3B R/B 4.0 22:27:15 10° NW 22:31:25 31° W 22:31:25 31° W
Terra 4.4 22:41:29 16° NW 22:41:29 16° NW 22:42:42 10° NW
Cosmos 2278 Rocket 4.0 22:49:46 27° NNW 22:49:46 27° NNW 22:53:07 10° NNE
CZ-4C R/B 4.2 23:34:17 25° NNE 23:34:17 25° NNE 23:37:08 10° NE
